Bangkok (Suvarnabhumi), Thailand

1:17 AM +07 on June 29, 2017 (GMT +0700)
Bangkok (Suvarnabhumi)

Weather History for VTBS - December, 2011

Change the Weather History Date:

Monday, December 26, 2011

  Actual Average (VTBU) Record (VTBU)
Temperature  
Mean Temperature 74 °F -  
Max Temperature 85 °F 90 °F 91 °F (2012)
Min Temperature 63 °F 69 °F 59 °F (1999)
Cooling Degree Days 9    
Growing Degree Days 24 (Base 50)    
Moisture  
Dew Point 55 °F    
Average Humidity 53    
Maximum Humidity 65    
Minimum Humidity 37    
Precipitation  
Precipitation 0.00 in 0.01 in - ()
Sea Level Pressure  
Sea Level Pressure 29.99 in    
Wind  
Wind Speed 10 mph ()    
Max Wind Speed 16 mph    
Max Gust Speed -    
Visibility 5.0 miles    
Events      
Averages and records for this station are not official NWS values.
T = Trace of Precipitation, MM = Missing Value Source: Averaged Metar Reports

Daily Weather History Graph

Daily Weather History Graph

Search for Another Location

Airport or City:

Trip Planner

Search our weather history database for the weather conditions in past years. The results will help you decide how hot, cold, wet, or windy it might be!

Date:

Astronomy

Dec. 26, 2011 Rise Set
Actual Time 6:36 AM +07 5:56 PM +07
Civil Twilight 6:12 AM +07 6:19 PM +07
Nautical Twilight 5:46 AM +07 6:46 PM +07
Astronomical Twilight 5:19 AM +07 7:12 PM +07
Moon 7:45 AM +07 (12/26) 7:34 PM +07 (12/26)
Length of Visible Light 12h 06m
Length of Day
11h 20m
Waxing Crescent, 3% of the Moon is Illuminated
Dec 26
Waxing Crescent
Jan 1
First Quarter
Jan 9
Full
Jan 16
Last Quarter
Jan 23
New

Hourly Weather History & Observations

Time (+07) Temp. Heat Index Dew Point Humidity Pressure Visibility Wind Dir Wind Speed Gust Speed Precip Events Conditions
12:00 AM 71.6 °F - 53.6 °F 53% 30.01 in 5.6 mi ENE 10.4 mph - N/A   Scattered Clouds
12:30 AM 71.6 °F - 53.6 °F 53% 30.04 in 5.6 mi NE 10.4 mph - N/A   Scattered Clouds
1:00 AM 69 °F - 56 °F 54% 30.00 in 6 mi NE 8.1 mph - -   Clear
1:00 AM 71.6 °F - 53.6 °F 53% 30.01 in 5.6 mi ENE 11.5 mph - N/A   Scattered Clouds
1:30 AM 69.8 °F - 53.6 °F 56% 30.01 in 5.0 mi ENE 12.7 mph - N/A   Scattered Clouds
2:00 AM 69.8 °F - 53.6 °F 56% 29.98 in 5.0 mi ENE 10.4 mph - N/A   Scattered Clouds
2:30 AM 69.8 °F - 53.6 °F 56% 29.98 in 5.0 mi ENE 12.7 mph - N/A   Scattered Clouds
3:00 AM 68.0 °F - 53.6 °F 60% 29.98 in 5.0 mi ENE 12.7 mph - N/A   Scattered Clouds
3:30 AM 68.0 °F - 53.6 °F 60% 29.95 in 5.0 mi ENE 12.7 mph - N/A   Scattered Clouds
4:00 AM 68.0 °F - 53.6 °F 60% 29.98 in 5.0 mi ENE 13.8 mph - N/A   Scattered Clouds
4:30 AM 66.2 °F - 53.6 °F 64% 29.98 in 5.0 mi ENE 11.5 mph - N/A   Scattered Clouds
5:00 AM 66.2 °F - 51.8 °F 60% 29.98 in 5.0 mi ENE 10.4 mph - N/A   Scattered Clouds
5:30 AM 66.2 °F - 53.6 °F 64% 29.98 in 5.0 mi ENE 11.5 mph - N/A   Scattered Clouds
6:00 AM 66.2 °F - 51.8 °F 60% 29.98 in 5.0 mi East 8.1 mph - N/A   Scattered Clouds
6:30 AM 66.2 °F - 51.8 °F 60% 30.01 in 4.3 mi ENE 10.4 mph - N/A   Scattered Clouds
7:00 AM 64 °F - 55 °F 65% 30.00 in 6 mi East 6.9 mph - -   Clear
7:00 AM 64.4 °F - 51.8 °F 64% 30.04 in 4.3 mi ENE 11.5 mph - N/A   Mostly Cloudy
7:30 AM 66.2 °F - 51.8 °F 60% 30.04 in 4.3 mi ENE 10.4 mph - N/A   Mostly Cloudy
8:00 AM 66.2 °F - 51.8 °F 60% 30.04 in 4.3 mi ENE 11.5 mph - N/A   Mostly Cloudy
8:30 AM 66.2 °F - 51.8 °F 60% 30.06 in 5.0 mi NE 10.4 mph - N/A   Mostly Cloudy
9:00 AM 68.0 °F - 51.8 °F 56% 30.06 in 5.0 mi NE 10.4 mph - N/A   Mostly Cloudy
9:30 AM 69.8 °F - 51.8 °F 53% 30.06 in 5.0 mi ENE 13.8 mph - N/A   Mostly Cloudy
10:00 AM 71.6 °F - 53.6 °F 53% 30.06 in 5.0 mi NE 10.4 mph - N/A   Mostly Cloudy
10:30 AM 73.4 °F - 53.6 °F 50% 30.06 in 5.0 mi NE 11.5 mph - N/A   Scattered Clouds
11:00 AM 73.4 °F - 51.8 °F 47% 30.06 in 5.6 mi NNE 13.8 mph - N/A   Scattered Clouds
11:30 AM 75.2 °F - 53.6 °F 47% 30.04 in 5.6 mi NE 15.0 mph - N/A   Scattered Clouds
12:00 PM 75.2 °F - 53.6 °F 47% 30.01 in 5.6 mi NE 15.0 mph - N/A   Scattered Clouds
12:30 PM 77.0 °F - 53.6 °F 44% 30.01 in 5.6 mi ENE 13.8 mph - N/A   Scattered Clouds
1:00 PM 81 °F - 59 °F 37% 29.94 in 6 mi NE 4.6 mph - -  
1:00 PM 77.0 °F - 53.6 °F 44% 29.98 in 5.6 mi NE 16.1 mph - N/A   Unknown
1:30 PM 78.8 °F - 53.6 °F 42% 29.98 in 5.6 mi ENE 15.0 mph - N/A   Unknown
2:00 PM 78.8 °F - 53.6 °F 42% 29.95 in 5.6 mi NE 13.8 mph - N/A   Unknown
2:30 PM 78.8 °F - 53.6 °F 42% 29.95 in 5.6 mi NE 13.8 mph - N/A   Unknown
3:00 PM 78.8 °F - 55.4 °F 44% 29.92 in 5.0 mi NNE 12.7 mph - N/A   Unknown
3:30 PM 78.8 °F - 55.4 °F 44% 29.92 in 5.0 mi NE 10.4 mph - N/A   Unknown
4:00 PM 80.6 °F 80.5 °F 55.4 °F 42% 29.92 in 5.0 mi NNE 10.4 mph - N/A   Unknown
4:30 PM 78.8 °F - 55.4 °F 44% 29.92 in 5.0 mi NE 11.5 mph - N/A   Unknown
5:00 PM 78.8 °F - 55.4 °F 44% 29.92 in 5.0 mi NE 11.5 mph - N/A   Unknown
5:30 PM 78.8 °F - 55.4 °F 44% 29.95 in 5.0 mi NNE 8.1 mph - N/A   Unknown
6:00 PM 77.0 °F - 57.2 °F 50% 29.95 in 4.3 mi NNE 5.8 mph - N/A   Unknown
6:30 PM 75.2 °F - 57.2 °F 53% 29.95 in 4.3 mi NNE 4.6 mph - N/A   Unknown
7:00 PM 79 °F - 61 °F 43% 29.95 in 6 mi NNE 3.5 mph - -  
7:00 PM 75.2 °F - 55.4 °F 50% 29.98 in 4.3 mi North 5.8 mph - N/A   Unknown
7:30 PM 73.4 °F - 57.2 °F 57% 29.98 in 4.3 mi North 8.1 mph - N/A   Unknown
8:00 PM 73.4 °F - 57.2 °F 57% 30.01 in 4.3 mi NNE 6.9 mph - N/A   Unknown
8:30 PM 73.4 °F - 57.2 °F 57% 30.01 in 4.3 mi NNE 5.8 mph - N/A   Unknown
9:00 PM 73.4 °F - 57.2 °F 57% 30.04 in 4.3 mi NE 5.8 mph - N/A   Unknown
9:30 PM 71.6 °F - 57.2 °F 60% 30.04 in 4.3 mi NNE 5.8 mph - N/A   Unknown
10:00 PM 71.6 °F - 57.2 °F 60% 30.04 in 4.3 mi NNE 5.8 mph - N/A   Unknown
10:30 PM 71.6 °F - 57.2 °F 60% 30.01 in 3.7 mi NNE 4.6 mph - N/A   Unknown
11:00 PM 71.6 °F - 57.2 °F 60% 30.01 in 3.7 mi North 3.5 mph - N/A   Unknown
11:30 PM 71.6 °F - 59.0 °F 64% 30.01 in 3.7 mi ENE 4.6 mph - N/A   Unknown